Theta_e
347 347 347 347 347 349 348 348 349 350 350 351 351 348 345 347 352 348 349 351 353 348 351 352 353 355 350 348 348 347 344 342 342
341 348 348 347 346 347 348 348 348 348 349 350 350 350 346 345 346 350 347 348 346 350 352 354 352 342 348 347 353 351 345 343 344
344 345 349 348 347 348 347 347 347 347 347 348 350 349 347 346 345 346 347 351 353 353 350 352 351 351 348 348 351 350 348 345 346
341 343 348 348 347 347 348 346 345 346 347 348 348 349 347 347 348 347 347 354 355 353 355 356 355 353 353 349 350 349 346 348 345
346 345 344 345 347 348 348 346 345 346 346 348 350 351 349 354 352 350 343 348 355 354 350 354 356 355 353 350 347 345 346 347 350
339 340 337 339 346 348 347 347 346 347 348 349 352 353 354 360 357 353 350 350 353 350 353 353 349 348 348 348 348 347 348 351 353
343 341 341 340 344 348 347 347 347 348 349 349 354 356 356 360 359 355 348 357 354 353 356 357 355 354 353 353 352 354 355 354 357
347 346 344 343 345 350 348 349 349 350 350 353 355 357 358 358 354 348 343 341 349 343 354 357 357 358 357 356 357 357 357 358 356
348 349 351 351 351 351 350 350 351 351 353 355 355 356 355 351 351 347 342 341 344 349 348 351 356 356 357 360 360 359 357 355 343
350 352 352 352 353 353 352 352 353 354 355 354 354 354 352 351 348 352 349 347 350 358 357 357 353 350 348 345 347 352 358 358 357
350 352 352 353 354 355 355 355 354 354 353 347 348 348 350 356 358 358 357 354 345 333 331 333 335 338 343 346 345 349 349 347 348
352 352 352 352 352 354 355 354 349 345 339 336 327 328 331 327 334 337 340 346 351 350 338 337 340 339 340 340 339 342 344 349 344
356 355 352 355 358 358 350 344 334 331 326 327 328 327 342 348 356 354 351 345 334 332 333 336 341 343 343 345 342 343 344 345 341
354 355 358 361 361 357 344 336 330 327 332 332 332 337 345 342 345 335 333 333 334 335 337 342 345 347 346 342 339 340 344 344 350
336 351 348 358 353 347 339 333 331 335 336 338 340 340 337 334 334 335 347 347 340 341 345 346 346 344 343 341 340 336 340 345 345
339 346 348 349 340 343 337 334 338 341 344 344 346 347 344 342 341 336 339 341 346 344 344 345 343 341 340 338 336 339 343 343 341
350 349 347 345 343 348 344 346 351 355 352 351 350 350 351 351 350 347 347 348 347 347 344 340 340 338 337 337 340 343 339 338 337
350 347 347 346 348 347 349 352 356 354 354 354 356 358 355 353 349 351 348 347 342 342 339 338 338 338 338 339 339 339 337 336 335
350 346 348 348 350 346 355 354 353 354 354 353 352 354 351 350 349 347 345 340 339 340 339 337 336 335 334 333 332 332 332 332 332
357 349 348 347 345 341 351 334 353 352 352 352 349 349 350 344 343 341 340 339 340 338 338 335 334 332 332 332 331 331 331 330 327
Wind_Speed
32 25 37 38 32 39 39 38 36 31 29 24 20 20 22 24 23 16 14 15 14 12 11 10 11 7 6 3 5 8 8 7 5
23 22 37 38 30 34 39 38 37 32 28 25 21 19 19 22 21 24 18 15 11 15 10 4 9 5 7 6 7 8 7 6 7
32 26 38 40 34 32 40 36 35 31 25 22 19 17 20 21 19 18 20 14 12 11 12 12 13 13 10 6 9 10 9 7 7
54 43 38 39 40 36 40 36 35 32 26 21 20 18 19 20 19 17 18 19 16 15 15 10 12 12 11 10 12 11 10 10 12
35 23 25 3 39 41 42 41 34 30 24 21 18 17 18 14 13 9 15 19 22 19 20 21 18 17 17 16 16 16 16 15 15
28 41 51 34 26 35 43 40 35 29 23 18 16 13 17 17 14 11 13 12 13 19 15 13 16 19 20 19 19 21 21 21 19
36 51 55 40 40 33 44 41 37 30 23 17 15 13 17 20 20 15 14 19 16 15 15 16 17 17 18 19 21 22 24 25 24
22 24 22 31 24 44 43 40 36 30 24 22 17 14 14 18 16 14 11 18 19 14 16 18 19 19 21 23 25 27 29 29 27
14 11 36 42 37 42 41 39 35 31 28 25 17 16 15 14 9 8 8 11 13 13 13 15 15 18 20 19 21 24 27 28 21
23 23 37 37 38 40 41 38 33 29 23 16 15 15 15 12 9 8 9 9 10 9 6 5 7 8 10 13 15 16 19 20 21
26 37 39 36 34 33 31 28 24 20 17 16 12 9 10 10 9 8 7 5 4 4 2 3 5 7 11 16 18 16 16 19 20
27 34 34 33 30 26 24 22 23 25 22 17 16 15 14 14 12 12 11 7 3 5 4 3 7 10 12 13 17 18 18 20 19
15 25 30 27 25 23 28 32 29 25 23 24 22 19 18 15 11 9 9 8 6 2 4 9 11 10 11 15 18 21 20 17 16
13 7 6 31 27 28 30 29 27 29 29 27 24 21 18 16 13 11 6 4 3 7 11 13 10 14 13 13 18 19 21 24 23
35 24 7 33 29 28 27 28 29 29 26 23 21 18 16 14 11 9 6 4 7 11 10 11 14 11 10 19 23 28 20 11 9
36 33 26 32 33 27 25 28 25 22 20 17 14 12 10 8 7 8 5 4 6 8 10 15 17 14 19 21 22 19 14 15 15
25 31 32 30 28 28 24 20 19 15 17 16 14 10 8 7 4 2 3 9 7 10 15 13 11 14 17 16 15 14 17 17 19
23 31 34 33 32 28 25 23 22 23 20 17 13 12 10 4 1 3 2 2 6 5 5 10 11 10 9 10 12 15 18 19 22
33 33 37 36 34 22 22 14 16 17 17 16 16 10 9 6 5 5 5 5 5 6 8 9 7 8 9 12 10 12 16 19 23
25 36 31 30 13 20 25 31 20 18 13 11 11 11 7 3 3 2 2 5 7 5 4 6 11 15 14 11 15 20 25 30 30
Wind_Direction
209 192 186 192 197 199 192 199 201 204 206 210 218 221 217 213 220 216 219 222 212 214 252 255 246 218 224 224 225 239 249 243 242
236 206 184 190 193 200 191 196 199 207 208 212 219 226 226 219 216 222 223 228 230 217 241 234 230 256 240 243 248 260 249 238 234
233 220 185 191 189 193 190 195 199 206 208 212 219 228 225 222 219 221 225 214 212 219 236 247 252 255 276 249 256 264 262 248 237
223 225 187 186 186 188 188 189 196 198 204 209 221 231 221 218 223 221 219 212 221 212 219 227 242 266 275 259 255 260 268 260 249
168 149 74 167 186 184 181 183 190 197 203 213 221 229 221 214 218 232 238 228 223 227 230 228 232 242 254 260 263 265 263 259 255
140 141 145 209 205 182 178 180 186 195 199 208 214 211 207 215 223 218 222 221 228 232 235 239 240 245 254 259 259 261 263 262 260
162 156 179 203 191 184 180 183 185 191 189 199 206 208 206 204 202 223 229 229 233 226 234 253 261 263 266 267 269 267 265 262 257
141 172 171 186 194 175 178 177 181 180 184 190 202 211 211 225 230 222 228 220 229 242 241 250 259 264 267 270 272 273 273 271 260
154 142 139 151 151 166 171 174 175 177 182 188 201 216 220 211 230 249 232 218 227 244 254 270 270 272 275 277 280 280 281 282 103
165 145 148 149 153 161 166 171 175 175 180 190 209 209 208 224 238 233 228 223 234 253 279 298 307 310 312 311 311 311 302 298 293
153 153 150 151 154 157 163 165 171 177 188 192 185 169 165 151 145 143 142 143 144 120 81 9 356 348 340 332 327 322 310 316 310
167 161 156 157 164 170 170 176 169 161 158 149 141 135 136 128 136 132 128 126 179 235 250 297 332 340 341 346 343 326 320 313 318
23 155 157 158 166 166 161 154 152 150 144 138 138 148 148 144 156 163 183 195 201 243 316 334 331 343 337 334 333 326 311 300 313
271 339 250 162 158 159 157 152 150 148 149 150 155 158 163 167 177 178 180 223 269 327 329 331 339 337 341 339 334 329 328 305 279
205 247 272 155 154 157 155 154 156 158 158 159 166 169 175 181 183 189 209 252 321 326 333 334 333 334 318 330 327 334 334 328 323
196 227 191 154 152 155 156 159 162 161 162 171 178 184 194 206 214 221 258 292 334 356 342 326 323 332 325 334 343 355 354 348 340
171 172 162 157 162 163 151 156 169 197 182 183 190 202 215 240 256 302 328 324 329 325 324 319 328 337 346 349 353 351 346 345 344
168 169 166 166 163 157 157 174 161 162 165 170 185 198 217 234 215 306 340 346 348 349 1 0 358 356 353 339 330 331 329 325 324
182 173 174 167 151 161 152 166 191 192 201 209 220 196 192 214 202 259 289 319 311 323 346 354 11 9 352 346 341 330 326 322 320
147 159 178 174 193 160 176 175 221 224 214 209 196 214 206 178 242 264 305 334 340 356 327 345 357 358 347 346 334 325 321 321 320